When you browse on this site, cookies collect data to enhance your experience and personalize the content and advertising you see.
Visit our Privacy Policy to learn more. By continuing to use the site, you agree to this use of cookies and data.
  • In France
  • List of Countries
  • For 7 days
  • Water Temperature
  • Weather Map
  • Weather Widgets
  • user-avatar
    Login

    Hourly Weather Saint John's

    Today, 6 April, Monday

    Time Temperature Precipitation Wind Pressure Humidity
    00:00 -6°C° 0 mm 1 mps 753 mmHg 90%
    01:00 -6°C° 0 mm 2 mps 753 mmHg 89%
    02:00 -6°C° 0 mm 2 mps 753 mmHg 88%
    03:00 -6°C° 0 mm 2 mps 752 mmHg 89%
    04:00 -7°C° 0 mm 3 mps 752 mmHg 90%
    05:00 -7°C° 0 mm 3 mps 752 mmHg 91%
    06:00 -6°C° 0 mm 3 mps 752 mmHg 89%
    07:00 -4°C° 0 mm 4 mps 752 mmHg 87%
    08:00 -2°C° 0 mm 4 mps 752 mmHg 85%
    09:00 -2°C° 0 mm 5 mps 752 mmHg 83%
    10:00 -1°C° 0 mm 5 mps 751 mmHg 81%
    11:00 -1°C° 0 mm 6 mps 751 mmHg 80%
    12:00 -1°C° 0 mm 7 mps 750 mmHg 78%
    13:00 -1°C° 0 mm 7 mps 750 mmHg 77%
    14:00 -1°C° 0 mm 8 mps 749 mmHg 75%
    15:00 -2°C° 0 mm 8 mps 749 mmHg 77%
    16:00 -2°C° 0 mm 8 mps 748 mmHg 79%
    17:00 -4°C° 0 mm 8 mps 747 mmHg 81%
    18:00 -4°C° 0 mm 8 mps 747 mmHg 83%
    19:00 -5°C° 0 mm 8 mps 747 mmHg 85%
    20:00 -5°C° 0 mm 8 mps 747 mmHg 87%
    21:00 -5°C° 0 mm 8 mps 746 mmHg 88%
    22:00 -5°C° 0 mm 8 mps 746 mmHg 89%
    23:00 -4°C° 0 mm 9 mps 745 mmHg 91%

    Tomorrow, 7 April, Tuesday

    Time Temperature Precipitation Wind Pressure Humidity
    00:00 -4°C° 0 mm 8 mps 745 mmHg 91%
    01:00 -3°C° 0 mm 7 mps 745 mmHg 90%
    02:00 -2°C° 0 mm 6 mps 744 mmHg 90%
    03:00 -4°C° 0 mm 6 mps 744 mmHg 90%
    04:00 -5°C° 0 mm 5 mps 744 mmHg 90%
    05:00 -6°C° 0 mm 5 mps 744 mmHg 91%
    06:00 -5°C° 0 mm 5 mps 744 mmHg 85%
    07:00 -2°C° 0 mm 5 mps 744 mmHg 79%
    08:00 -1°C° 0 mm 5 mps 744 mmHg 73%
    09:00 0°C° 0 mm 5 mps 744 mmHg 71%
    10:00 -1°C° 0 mm 6 mps 744 mmHg 68%
    11:00 +1°C° 0 mm 6 mps 744 mmHg 65%
    12:00 +1°C° 0 mm 6 mps 744 mmHg 64%
    13:00 +1°C° 0 mm 6 mps 744 mmHg 63%
    14:00 +1°C° 0 mm 6 mps 743 mmHg 62%
    15:00 -1°C° 0 mm 6 mps 743 mmHg 65%
    16:00 -1°C° 0 mm 6 mps 743 mmHg 68%
    17:00 -2°C° 0 mm 6 mps 743 mmHg 72%
    18:00 -3°C° 0 mm 6 mps 744 mmHg 77%
    19:00 -5°C° 0 mm 5 mps 744 mmHg 82%
    20:00 -6°C° 0 mm 5 mps 745 mmHg 88%
    21:00 -6°C° 0 mm 5 mps 745 mmHg 88%
    22:00 -6°C° 0 mm 5 mps 744 mmHg 89%
    23:00 -6°C° 0 mm 5 mps 744 mmHg 89%

    Day after tomorrow, 8 April, Wednesday

    Time Temperature Precipitation Wind Pressure Humidity
    00:00 -6°C° 0 mm 5 mps 744 mmHg 88%
    01:00 -6°C° 0 mm 5 mps 744 mmHg 88%
    02:00 -6°C° 0 mm 5 mps 744 mmHg 87%
    03:00 -6°C° 0 mm 5 mps 744 mmHg 87%
    04:00 -6°C° 0 mm 5 mps 745 mmHg 88%
    05:00 -6°C° 0 mm 5 mps 745 mmHg 89%
    06:00 -5°C° 0 mm 5 mps 745 mmHg 85%
    07:00 -4°C° 0 mm 4 mps 746 mmHg 82%
    08:00 -3°C° 0 mm 4 mps 746 mmHg 79%
    09:00 -2°C° 0 mm 4 mps 746 mmHg 75%
    10:00 -1°C° 0 mm 3 mps 746 mmHg 71%
    11:00 0°C° 0 mm 3 mps 746 mmHg 67%
    12:00 +1°C° 0.1 mm 2 mps 747 mmHg 66%
    13:00 +1°C° 0.1 mm 2 mps 747 mmHg 66%
    14:00 +2°C° 0.1 mm 1 mps 747 mmHg 66%
    15:00 +1°C° 0.1 mm 2 mps 747 mmHg 67%
    16:00 +1°C° 0.1 mm 2 mps 747 mmHg 69%
    17:00 -1°C° 0.1 mm 3 mps 748 mmHg 71%
    18:00 -2°C° 0 mm 3 mps 748 mmHg 72%
    19:00 -4°C° 0 mm 3 mps 748 mmHg 73%
    20:00 -4°C° 0 mm 4 mps 749 mmHg 74%
    21:00 -5°C° 0 mm 3 mps 748 mmHg 79%
    22:00 -5°C° 0 mm 3 mps 748 mmHg 85%
    23:00 -6°C° 0 mm 3 mps 748 mmHg 90%

    9 April, Thursday

    Time Temperature Precipitation Wind Pressure Humidity
    00:00 -6°C° 0 mm 3 mps 747 mmHg 89%
    01:00 -6°C° 0 mm 3 mps 747 mmHg 89%
    02:00 -5°C° 0 mm 2 mps 746 mmHg 88%
    03:00 -5°C° 0 mm 3 mps 746 mmHg 87%
    04:00 -5°C° 0 mm 4 mps 745 mmHg 86%
    05:00 -5°C° 0 mm 5 mps 745 mmHg 84%
    06:00 -5°C° 0.2 mm 6 mps 744 mmHg 87%
    07:00 -6°C° 0.2 mm 7 mps 744 mmHg 90%
    08:00 -6°C° 0.2 mm 7 mps 743 mmHg 92%
    09:00 -5°C° 0.9 mm 8 mps 742 mmHg 92%
    10:00 -5°C° 0.9 mm 8 mps 741 mmHg 92%
    11:00 -5°C° 0.9 mm 8 mps 741 mmHg 92%
    12:00 -4°C° 0.7 mm 7 mps 740 mmHg 91%
    13:00 -4°C° 0.7 mm 7 mps 740 mmHg 90%
    14:00 -4°C° 0.7 mm 7 mps 739 mmHg 89%
    15:00 -5°C° 0.1 mm 6 mps 740 mmHg 90%
    16:00 -5°C° 0.1 mm 6 mps 741 mmHg 91%
    17:00 -5°C° 0.1 mm 5 mps 741 mmHg 93%
    18:00 -5°C° 0 mm 4 mps 742 mmHg 93%
    19:00 -6°C° 0 mm 3 mps 743 mmHg 94%
    20:00 -6°C° 0 mm 3 mps 744 mmHg 95%
    21:00 -6°C° 0 mm 3 mps 744 mmHg 95%
    22:00 -6°C° 0 mm 3 mps 745 mmHg 94%
    23:00 -6°C° 0 mm 3 mps 745 mmHg 94%

    10 April, Friday

    Time Temperature Precipitation Wind Pressure Humidity
    00:00 -7°C° 0 mm 4 mps 746 mmHg 94%
    01:00 -7°C° 0 mm 4 mps 746 mmHg 93%
    02:00 -7°C° 0 mm 4 mps 746 mmHg 93%
    03:00 -7°C° 0 mm 4 mps 747 mmHg 92%
    04:00 -7°C° 0 mm 4 mps 747 mmHg 92%
    05:00 -5°C° 0 mm 4 mps 747 mmHg 91%
    06:00 -5°C° 0 mm 5 mps 747 mmHg 89%
    07:00 -4°C° 0 mm 6 mps 746 mmHg 87%
    08:00 -3°C° 0 mm 7 mps 746 mmHg 85%
    09:00 -4°C° 0.3 mm 8 mps 744 mmHg 87%
    10:00 -4°C° 0.3 mm 9 mps 743 mmHg 89%
    11:00 -4°C° 0.3 mm 11 mps 742 mmHg 91%
    12:00 -3°C° 3.2 mm 10 mps 740 mmHg 93%
    13:00 -2°C° 3.2 mm 10 mps 738 mmHg 95%
    14:00 0°C° 3.2 mm 9 mps 736 mmHg 97%
    15:00 0°C° 0.1 mm 10 mps 736 mmHg 91%
    16:00 -1°C° 0.1 mm 11 mps 736 mmHg 86%
    17:00 -1°C° 0.1 mm 12 mps 736 mmHg 80%
    18:00 -2°C° 0 mm 11 mps 737 mmHg 81%
    19:00 -2°C° 0 mm 11 mps 738 mmHg 81%
    20:00 -3°C° 0 mm 11 mps 739 mmHg 82%
    21:00 -3°C° 0 mm 10 mps 739 mmHg 84%
    22:00 -4°C° 0 mm 10 mps 740 mmHg 86%
    23:00 -4°C° 0 mm 9 mps 740 mmHg 87%

    11 April, Saturday

    Time Temperature Precipitation Wind Pressure Humidity
    00:00 -4°C° 0.1 mm 8 mps 740 mmHg 89%
    01:00 -3°C° 0.1 mm 7 mps 740 mmHg 90%
    02:00 -3°C° 0.1 mm 7 mps 741 mmHg 91%
    03:00 -4°C° 0.1 mm 6 mps 741 mmHg 91%
    04:00 -4°C° 0.1 mm 5 mps 741 mmHg 92%
    05:00 -3°C° 0.1 mm 4 mps 741 mmHg 92%
    06:00 -1°C° 0.1 mm 3 mps 741 mmHg 91%
    07:00 -1°C° 0.1 mm 3 mps 741 mmHg 89%
    08:00 0°C° 0.1 mm 3 mps 740 mmHg 88%
    09:00 +1°C° 0 mm 3 mps 741 mmHg 87%
    10:00 +2°C° 0 mm 3 mps 741 mmHg 86%
    11:00 +3°C° 0 mm 3 mps 741 mmHg 84%
    12:00 +3°C° 0 mm 3 mps 741 mmHg 85%
    13:00 +3°C° 0 mm 3 mps 741 mmHg 85%
    14:00 +3°C° 0 mm 3 mps 741 mmHg 85%
    15:00 +1°C° 0.1 mm 4 mps 742 mmHg 87%
    16:00 +1°C° 0.1 mm 5 mps 742 mmHg 89%
    17:00 0°C° 0.1 mm 5 mps 743 mmHg 91%
    18:00 -2°C° 0 mm 6 mps 743 mmHg 91%
    19:00 -2°C° 0 mm 6 mps 744 mmHg 91%
    20:00 -3°C° 0 mm 6 mps 745 mmHg 91%
    21:00 -3°C° 0 mm 7 mps 745 mmHg 89%
    22:00 -3°C° 0 mm 7 mps 746 mmHg 87%
    23:00 -2°C° 0 mm 7 mps 747 mmHg 86%
    Show more